Regional Weather Roundup
Issued by NWS Sioux Falls, SD

Home | Current Version | Previous Version | Text Only | Print | Product List | Glossary Off
Versions: 1 2 3 4 5 6 7 8 9 10 11 12 13 14 15 16 17 18 19 20 21 22 23 24 25 26 27 28 29 30 31 32 33 34 35 36 37 38 39 40 41 42 43 44 45 46 47 48 49 50

000
ASUS43 KFSD 280610
RWRFSD

WEATHER ROUNDUP FOR SE SOUTH DAKOTA/SW MINNESOTA/NW IOWA
NATIONAL WEATHER SERVICE SIOUX FALLS SD
1200 AM CST WED JAN 28 2015

NOTE: "FAIR" INDICATES FEW OR NO CLOUDS BELOW 12,000 FEET WITH NO
SIGNIFICANT WEATHER AND OR OBSTRUCTIONS TO VISIBILITY.


SDZ038>040-050-052>070-280700-
SOUTHEAST SOUTH DAKOTA

CITY           SKY/WX    TMP DP  RH WIND       PRES   REMARKS
CHAMBERLAIN    CLOUDY    34  32  92 SE6       29.82F WCI  29
6HR MIN TEMP:  34; 6HR MAX TEMP:  43;

HURON          PTCLDY    35  32  88 S13       29.86R WCI  26
6HR MIN TEMP:  35; 6HR MAX TEMP:  36;

MADISON        FAIR      34  34 100 S16       29.89F WCI  23
MITCHELL       PTCLDY    36  32  85 S14       29.88S
6HR MIN TEMP:  36; 6HR MAX TEMP:  40;

SIOUX FALLS    CLEAR     36  31  82 S14G21    29.93F
6HR MIN TEMP:  36; 6HR MAX TEMP:  39;

WINNER         FAIR      49  33  54 S6        29.80F
YANKTON        PTCLDY    37  28  70 SE7       29.92F
$$

MNZ071-072-080-081-089-090-097-098-280700-
SOUTHWEST MINNESOTA

CITY           SKY/WX    TMP DP  RH WIND       PRES   REMARKS
FAIRMONT       CLOUDY    30  27  86 S17G25    30.05F WCI  18
JACKSON        PTCLDY    32  30  93 S16       30.01F WCI  21
LUVERNE        PTCLDY    36  32  87 S9        29.96F
MARSHALL       CLEAR     34  28  80 SE13      29.97F WCI  25
6HR MIN TEMP:  34; 6HR MAX TEMP:  36;

MONTEVIDEO     CLEAR     32  32 100 S16       29.98F WCI  21
PIPESTONE      PTCLDY    36  32  87 S14       29.93S
REDWOOD FALLS  CLOUDY    33  31  92 SE17      30.01F WCI  22
TRACY          CLEAR     34  32  92 S12G17    29.97S WCI  25
WINDOM         PTCLDY    32  30  93 SE15      29.99F FOG     WCI  22
WORTHINGTON    PTCLDY    34  28  80 S13G21    29.97F WCI  25
$$

IAZ001>003-012>014-020>022-031-032-NEZ013-014-SDZ071-280700-
NORTHWEST IOWA

CITY           SKY/WX    TMP DP  RH WIND       PRES   REMARKS
CHEROKEE       CLEAR     32  32  97 SE8       30.01S WCI  25
DENISON        CLEAR     36  32  87 SE6       29.99F
ESTHERVILLE    CLOUDY    30  29  96 S20       30.03F WCI  17
LE MARS          N/A    N/A N/A N/A SE9       29.97F
ORANGE CITY    CLEAR     36  30  80 SE8       29.97S
SHELDON        PTCLDY    34  34 100 SE16G23   29.97F WCI  23
SIOUX CITY     CLEAR     34  29  82 SE9       29.97S WCI  27
6HR MIN TEMP:  32; 6HR MAX TEMP:  42;

SPENCER        CLEAR     32  29  88 SE15      30.01F WCI  22
6HR MIN TEMP:  32; 6HR MAX TEMP:  37;

STORM LAKE     CLEAR     32  30  93 SE15      30.01F WCI  22
$$

ABBREVIATIONS USED IN REMARKS
   TC - TEMPERATURE IN CELSIUS
  WCI - WIND CHILL INDEX
   HX - HEAT INDEX
  VSB - VISIBILITY



USA.gov is the U.S. government's official web portal to all federal, state and local government web resources and services.